Elefsis, Greece

12:09 PM EET on January 19, 2018 (GMT +0200)
Elefsis Air Base

Weather History for LGEL - June, 2013

Change the Weather History Date:

Tuesday, June 25, 2013

  Actual Average Record
Temperature  
Mean Temperature 85 °F -  
Max Temperature 95 °F 89 °F 100 °F (2008)
Min Temperature 75 °F 71 °F 66 °F (2005)
Cooling Degree Days 20    
Growing Degree Days 35 (Base 50)    
Moisture  
Dew Point 52 °F    
Average Humidity 32    
Maximum Humidity 53    
Minimum Humidity 16    
Precipitation  
Precipitation 0.00 in - - ()
Sea Level Pressure  
Sea Level Pressure 29.76 in    
Wind  
Wind Speed 7 mph ()    
Max Wind Speed 13 mph    
Max Gust Speed -    
Averages and records for this station are not official NWS values.
T = Trace of Precipitation, MM = Missing Value Source: Averaged Metar Reports

Daily Weather History Graph

Daily Weather History Graph

Search for Another Location

Airport or City:

Trip Planner

Search our weather history database for the weather conditions in past years. The results will help you decide how hot, cold, wet, or windy it might be!

Date:

Astronomy

Jun. 25, 2013 Rise Set
Actual Time 6:04 AM EEST 8:52 PM EEST
Civil Twilight 5:32 AM EEST 9:24 PM EEST
Nautical Twilight 4:53 AM EEST 10:03 PM EEST
Astronomical Twilight 4:08 AM EEST 10:48 PM EEST
Moon 10:28 PM EEST (6/25) 8:19 AM EEST (6/25)
Length of Visible Light 15h 51m
Length of Day
14h 48m
Waning Gibbous, 94% of the Moon is Illuminated
Jun 25
Waning Gibbous
Jun 30
Last Quarter
Jul 8
New
Jul 16
First Quarter
Jul 22
Full

Hourly Weather History & Observations

Time (EEST) Temp. Heat Index Dew Point Humidity Pressure Visibility Wind Dir Wind Speed Gust Speed Precip Events Conditions
12:50 AM 78.8 °F - 55.4 °F 44% 29.77 in - NW 3.5 mph - N/A   Clear
1:50 AM 78.8 °F - 55.4 °F 44% 29.77 in - NNW 8.1 mph - N/A   Clear
2:50 AM 78.8 °F - 53.6 °F 42% 29.74 in - NNW 6.9 mph - N/A   Clear
3:50 AM 77.0 °F - 55.4 °F 47% 29.74 in - NNW 5.8 mph - N/A   Clear
4:50 AM 77.0 °F - 57.2 °F 50% 29.74 in - NNW 8.1 mph - N/A   Clear
5:50 AM 75.2 °F - 57.2 °F 53% 29.77 in - NNW 8.1 mph - N/A   Clear
6:20 AM 75.2 °F - 55.4 °F 50% 29.77 in - NW 6.9 mph - N/A   Clear
6:50 AM 77.0 °F - 53.6 °F 44% 29.77 in - West 3.5 mph - N/A   Clear
7:20 AM 78.8 °F - 53.6 °F 42% 29.77 in - West 5.8 mph - N/A   Clear
7:50 AM 80.6 °F 80.3 °F 53.6 °F 39% 29.77 in - NW 5.8 mph - N/A   Clear
8:20 AM 82.4 °F 81.4 °F 53.6 °F 37% 29.77 in - NW 9.2 mph - N/A   Clear
8:50 AM 84.2 °F 82.8 °F 53.6 °F 35% 29.77 in - WNW 5.8 mph - N/A   Clear
9:20 AM 84.2 °F 83.0 °F 55.4 °F 37% 29.77 in - Variable 3.5 mph - N/A   Clear
9:50 AM 86.0 °F 84.2 °F 53.6 °F 33% 29.77 in - Variable 3.5 mph - N/A   Clear
10:20 AM 89.6 °F - 51.8 °F 27% 29.77 in - NNW 8.1 mph - N/A   Clear
10:50 AM 91.4 °F - 50.0 °F 24% 29.77 in - Variable 3.5 mph - N/A   Clear
11:20 AM 93.2 °F - 51.8 °F 24% 29.77 in - SW 6.9 mph - N/A   Clear
11:50 AM 93.2 °F - 50.0 °F 23% 29.77 in - SSW 8.1 mph - N/A   Clear
12:20 PM 93.2 °F - 48.2 °F 21% 29.77 in - South 8.1 mph - N/A   Clear
12:50 PM 93.2 °F - 48.2 °F 21% 29.77 in - SSW 9.2 mph - N/A   Clear
1:20 PM 93.2 °F - 46.4 °F 20% 29.77 in - South 12.7 mph - N/A   Clear
1:50 PM 93.2 °F - 44.6 °F 19% 29.74 in - SSW 11.5 mph - N/A   Clear
2:20 PM 95.0 °F - 46.4 °F 19% 29.74 in - SSW 11.5 mph - N/A   Clear
2:50 PM 95.0 °F - 46.4 °F 19% 29.74 in - South 12.7 mph - N/A   Clear
3:20 PM 95.0 °F - 44.6 °F 18% 29.74 in - SSW 12.7 mph - N/A   Clear
3:50 PM 95.0 °F - 46.4 °F 19% 29.74 in - SSW 10.4 mph - N/A   Clear
4:20 PM 95.0 °F - 42.8 °F 16% 29.74 in - SSW 10.4 mph - N/A   Clear
4:50 PM 95.0 °F - 44.6 °F 18% 29.74 in - South 9.2 mph - N/A   Clear
5:20 PM 95.0 °F - 48.2 °F 20% 29.74 in - South 9.2 mph - N/A   Clear
5:50 PM 95.0 °F - 46.4 °F 19% 29.74 in - SW 6.9 mph - N/A   Clear
6:20 PM 95.0 °F - 46.4 °F 19% 29.74 in - SSW 9.2 mph - N/A   Clear
6:50 PM 93.2 °F - 50.0 °F 23% 29.74 in - South 9.2 mph - N/A   Clear
7:20 PM 91.4 °F 89.1 °F 53.6 °F 28% 29.74 in - South 8.1 mph - N/A   Clear
7:50 PM 87.8 °F 86.1 °F 55.4 °F 33% 29.74 in - SSW 6.9 mph - N/A   Clear
8:20 PM 86.0 °F 84.9 °F 57.2 °F 37% 29.74 in - SE 6.9 mph - N/A   Clear
8:50 PM 84.2 °F 83.5 °F 57.2 °F 40% 29.74 in - NE 5.8 mph - N/A   Clear
9:20 PM 82.4 °F 81.7 °F 55.4 °F 39% 29.77 in - ENE 5.8 mph - N/A   Clear
9:50 PM 82.4 °F 82.0 °F 57.2 °F 42% 29.77 in - Variable 3.5 mph - N/A   Clear
10:20 PM 82.4 °F 81.7 °F 55.4 °F 39% 29.77 in - NNE 6.9 mph - N/A   Clear
10:50 PM 80.6 °F 80.5 °F 55.4 °F 42% 29.80 in - NNE 4.6 mph - N/A   Clear
11:20 PM 80.6 °F 80.3 °F 53.6 °F 39% 29.80 in - NNW 8.1 mph - N/A   Clear
11:50 PM 78.8 °F - 53.6 °F 42% 29.80 in - NNW 9.2 mph - N/A   Clear